DELTA 1 DEB, 5971

Orbit data source: Space-Track

DELTA 1 DEB, 5971 is space debris in SSO originally from a launch on Thu, 26 Jan 1967 UTC launched from the Air Force Western Test Range (AFWTR). Debris objects in space refer to the collection of defunct objects orbiting the Earth. Examples of debris include non-operational satellites, rocket bodies, and fragments generated from explosions, collisions, or faulty payload assembly.

Loading next visibility...
Identifier
5971, 1967-006E
Orbit
SSO
Country
Flag of USUS
Related business
Manufacturer
Unknown
Mission
Spacecraft
Bus & Motor
Unknown
Mass
Unknown
Launch date (UTC)
1967-01-26 (59 years ago)
Launch vehicle
Unknown
Launch site
Air Force Western Test Range (AFWTR)
Object type
Payload
Rocket body
Debris
Shape & HBR
Unknown shape, 0.1 m
Radar Cross Section
Small (<0.1 m²)

Expand to show TLE details & history
Last TLE update: 2 days ago

TLE from 2 days ago
0 DELTA 1 DEB
1 05971U 67006E   26125.33141545 -.00000010  00000-0  17750-3 0  9998
2 05971 101.9486  67.6831 0113319  55.5280  95.5808 12.73484374755631
Epoch: 2026-05-05T07:57Z
TLE epoch observation values (Epoch: 2026-05-05T07:57:14.294Z)
Latitude
26.9914°
Longitude
-88.67737°
Altitude
1,380.317 km
Speed
7.167 km/s
True Right ascension
16h 55m 21s
True Declination
26° 51' 49"
Sunlit
Object was in full shadow at epoch
Visualization orbit readout
Latitude
Unknown
Longitude
Unknown
Altitude
Unknown
Speed
Unknown
Apparent Right ascension
Unknown
Apparent Declination
Unknown
Sunlit
N/A
Visualization observer readout
Local Sidereal Time
16:12:35
Azimuth
Unknown
Elevation
Unknown
Doppler factor
Unknown
Orbital elements
Apogee altitude
1,453.054 km
Perigee altitude
1,277.558 km
Semi-major axis
7,743.443 km
Eccentricity
0.01133
Inclination
101.9486°
RAAN
67.6831°
Arg. of periapsis
55.528°
True anomaly
96.8713°
Mean anomaly
95.5808°
Eccentric anomaly
96.22624°
Mean motion
3.18524 °/min
Orbital period
113.02 mins
BSTAR
0.0001775
Loading maneuver chart data...
Computing Atmospheric mass density...
Loading historical data...
Loading historical data...
Loading historical data...
Loading historical data...
Loading historical data...
Loading historical data...
Loading historical data...
Other satellites on launch #6 in the year 1967 (1967-01-26 UTC)

Documentation

Showing up to 5 results
|